Погода в Красной Слободе

Россия / Республика Татарстан     54°57′27″N   49°15′34″E
темп.,
°C
ветер,
м/с
пор.,
м/с
влажн.,
%
обл.,
%
осадки,
мм/ч
давл.,
гПа
погр.,
м
22 октября, пт
пт2200:00+9зюз71287100 0.1 1001329
03:00+9юз61290100 0.1 1001296
06:00+10ююз71283100 0.0 999324
09:00+11юз91578100 0.0 999549
12:00+12юз101570100 0.0 999570
15:00+12юз91568100 0.0 1000540
18:00+11юз91572100 0.0 1001498
21:00+11зюз916760 0.0 1003534
23 октября, сб
сб2300:00+10зюз814790 0.0 1004450
03:00+9зюз713810 0.0 1006408
06:00+8юз813820 0.0 1007520
09:00+9юз812775 0.0 1008764
12:00+10зюз811605 0.0 1009946
15:00+11зюз711575 0.0 1010816
18:00+9юз486584 0.0 1010131
21:00+8ююз4766100 0.0 1010116
24 октября, вс
вс2400:00+8ююз61176100 0.0 1009337
03:00+8ююз598994 1.2 1008281
06:00+7з588662 0.3 1008285
09:00+7з697341 0.3 1009623
12:00+8з78654 0.0 1010988
15:00+8з686221 0.0 10101002
18:00+7з5763100 0.0 1011787
21:00+6зюз457839 0.0 1012457
25 октября, пн
пн2500:00+5з348065 0.0 1012414
03:00+5з5684100 0.1 1012635
06:00+4зсз3488100 0.1 1013469
09:00+3ссз5896100 1.1 1015667
12:00+4с10116997 0.8 10181162
15:00+4с911535 0.8 10201361
18:00+2ссз811593 0.0 1024807
21:00+1ссз710680 0.0 1025506
26 октября, вт
вт2600:000сз57719 0.0 1027297
03:000зсз46715 0.0 1028259
06:000з577125 0.0 1027297
09:00+2зюз8125990 0.0 1027553
12:00+5зюз9124693 0.0 1025893
15:00+5зюз9124899 0.0 1024905
18:00+4зюз8125465 0.0 1024645
21:00+3зюз7126063 0.0 1023492